{"data":{"norad_id":64433,"intl_designator":"2025-129X","name":"STARLINK-34451","alt_names":[],"object_type":"PAYLOAD","status":"ACTIVE","operator":null,"country":"US","launch_date":"2025-06-17","launch_site_code":"AFWTR","launch_vehicle":null,"mission":null,"orbit_class":"UNKNOWN","rcs_meters":null,"size_class":null,"mass_kg":null,"dimensions":null,"purposes":["comms"],"wikipedia_slug":null,"has_3d_model":false,"image_url":null,"decayed_at":null,"tle_current":{"epoch":"2026-09-20T11:56:58.166880Z","epoch_age_seconds":134413,"freshness":"FRESH","line1":"1 64433U 25129X   26263.49789545  .00005879  00000+0  20875-3 0  9992","line2":"2 64433  70.0011 301.0411 0003664 270.8626  89.2130 15.29584401 70460","mean_motion":15.29584401,"eccentricity":0.0003664,"inclination_deg":70.0011,"raan_deg":301.0411,"arg_perigee_deg":270.8626,"mean_anomaly_deg":89.213,"bstar":0.00020875,"rev_number":7046,"period_min":94.143219495346,"perigee_km":474.54201161094,"apogee_km":479.56549539511,"semimajor_km":6855.190753503,"source":"CELESTRAK","updated_at":"2026-09-21T09:00:35.350444Z"}}}